User: anonymous   Login
Location: Drayton Valley
(53.2170°N, 114.9830°W)
Time: 23:26:32
(UTC-06:00)
Language:

MOZ.5/SAFIR/RUBIN 5/SL-8 - Orbit

View from above orbital plane
View from above orbital plane
View from above satellite
View from above satellite

Ground track
Ground track

The orbit data is extracted from the following two-line orbital elements,

1 28898U 05043G   17268.57743366 +.00000141 +00000-0 +38505-4 0  9993
2 28898 097.9413 054.0314 0018775 230.0839 129.8713 14.60202863257850
Epoch (UTC): 25 September 2017 13:51:30
Eccentricity: 0.0018775
inclination: 97.9413°
perigee height: 679 km
apogee height: 706 km
right ascension of ascending node: 54.0314°
argument of perigee: 230.0839°
revolutions per day: 14.60202863
mean anomaly at epoch: 129.8713°
orbit number at epoch: 25785

The dashed part of the orbit path shows where the satellite is in the earth's shadow,  

DLR